Time,TemperatureF,DewpointF,PressureIn,WindDirection,WindDirectionDegrees,WindSpeedMPH,WindSpeedGustMPH,Humidity,HourlyPrecipIn,Conditions,Clouds,dailyrainin,SoftwareType,DateUTC
2013-11-20 00:06:00,57.5,51.0,30.15,NW,311,0.0,0.0,79,0.00,,FEW100,0.00,VWS V14.01,2013-11-20 06:06:00,
2013-11-20 00:16:00,57.6,50.8,30.15,NW,311,0.0,0.0,78,0.00,,FEW100,0.00,VWS V14.01,2013-11-20 06:16:00,
2013-11-20 00:26:00,58.0,50.5,30.16,NW,311,0.0,0.0,76,0.00,,FEW100,0.00,VWS V14.01,2013-11-20 06:26:00,
2013-11-20 00:36:00,58.1,50.6,30.16,NW,311,0.0,0.0,76,0.00,,FEW100,0.00,VWS V14.01,2013-11-20 06:36:00,
2013-11-20 00:46:00,58.3,50.4,30.16,NW,311,0.0,0.0,75,0.00,,FEW100,0.00,VWS V14.01,2013-11-20 06:46:00,
2013-11-20 00:56:00,58.3,50.1,30.15,NW,307,0.0,0.0,74,0.00,,FEW100,0.00,VWS V14.01,2013-11-20 06:56:00,
2013-11-20 01:06:00,58.3,50.1,30.15,NW,307,0.0,0.0,74,0.00,,FEW100,0.00,VWS V14.01,2013-11-20 07:06:00,
2013-11-20 01:16:00,58.1,49.9,30.15,NW,307,0.0,0.0,74,0.00,,FEW100,0.00,VWS V14.01,2013-11-20 07:16:00,
2013-11-20 01:26:00,58.1,49.9,30.15,NW,307,0.0,0.0,74,0.00,,FEW100,0.00,VWS V14.01,2013-11-20 07:26:00,
2013-11-20 01:36:00,58.0,49.4,30.15,NW,308,0.0,0.0,73,0.00,,FEW100,0.00,VWS V14.01,2013-11-20 07:36:00,
2013-11-20 01:46:00,58.0,50.1,30.15,NW,308,0.0,0.0,75,0.00,,FEW100,0.00,VWS V14.01,2013-11-20 07:46:00,
2013-11-20 01:56:00,58.0,49.8,30.16,NW,308,0.0,0.0,74,0.00,,FEW100,0.00,VWS V14.01,2013-11-20 07:56:00,
2013-11-20 02:06:00,58.0,49.8,30.16,NW,308,0.0,0.0,74,0.00,,FEW100,0.00,VWS V14.01,2013-11-20 08:06:00,
2013-11-20 02:16:00,58.0,49.8,30.16,NW,308,0.0,0.0,74,0.00,,FEW100,0.00,VWS V14.01,2013-11-20 08:16:00,
2013-11-20 02:26:00,57.8,48.8,30.15,NW,308,0.0,0.0,72,0.00,,FEW100,0.00,VWS V14.01,2013-11-20 08:26:00,
2013-11-20 02:36:00,57.8,49.2,30.14,NW,308,0.0,0.0,73,0.00,,FEW100,0.00,VWS V14.01,2013-11-20 08:36:00,
2013-11-20 02:46:00,57.8,48.8,30.14,NW,308,0.0,0.0,72,0.00,,FEW100,0.00,VWS V14.01,2013-11-20 08:46:00,
2013-11-20 02:56:00,57.8,48.8,30.14,NW,312,0.0,1.0,72,0.00,,FEW100,0.00,VWS V14.01,2013-11-20 08:56:00,
2013-11-20 03:06:00,57.8,48.8,30.13,NW,312,0.0,0.0,72,0.00,,FEW100,0.00,VWS V14.01,2013-11-20 09:06:00,
2013-11-20 03:16:00,57.8,49.2,30.13,NW,312,0.0,0.0,73,0.00,,FEW100,0.00,VWS V14.01,2013-11-20 09:16:00,
2013-11-20 03:26:00,57.8,49.2,30.13,NW,312,0.0,0.0,73,0.00,,FEW100,0.00,VWS V14.01,2013-11-20 09:26:00,
2013-11-20 03:36:00,57.8,49.2,30.12,NW,312,0.0,0.0,73,0.00,,FEW100,0.00,VWS V14.01,2013-11-20 09:36:00,
2013-11-20 03:46:00,57.8,49.2,30.12,NW,312,0.0,0.0,73,0.00,,FEW100,0.00,VWS V14.01,2013-11-20 09:46:00,
2013-11-20 03:56:00,57.8,49.2,30.12,NW,312,0.0,0.0,73,0.00,,FEW100,0.00,VWS V14.01,2013-11-20 09:56:00,
2013-11-20 04:06:00,57.8,48.8,30.13,NW,312,0.0,0.0,72,0.00,,FEW100,0.00,VWS V14.01,2013-11-20 10:06:00,
2013-11-20 04:16:00,57.8,48.8,30.13,NW,312,0.0,0.0,72,0.00,,FEW100,0.00,VWS V14.01,2013-11-20 10:16:00,
2013-11-20 04:26:00,57.6,48.7,30.13,NW,312,0.0,0.0,72,0.00,,FEW100,0.00,VWS V14.01,2013-11-20 10:26:00,
2013-11-20 04:36:00,57.8,49.2,30.12,NW,312,0.0,0.0,73,0.00,,FEW100,0.00,VWS V14.01,2013-11-20 10:36:00,
2013-11-20 04:46:00,57.8,49.6,30.12,NW,312,0.0,0.0,74,0.00,,FEW100,0.00,VWS V14.01,2013-11-20 10:46:00,
2013-11-20 04:56:00,57.6,49.0,30.11,NW,312,0.0,0.0,73,0.00,,FEW100,0.00,VWS V14.01,2013-11-20 10:56:00,
2013-11-20 05:06:00,57.6,49.0,30.12,NW,312,0.0,0.0,73,0.00,,FEW100,0.00,VWS V14.01,2013-11-20 11:06:00,
2013-11-20 05:16:00,57.6,49.0,30.12,NW,312,0.0,0.0,73,0.00,,FEW100,0.00,VWS V14.01,2013-11-20 11:16:00,
2013-11-20 05:26:00,57.6,49.4,30.13,NW,312,0.0,0.0,74,0.00,,FEW100,0.00,VWS V14.01,2013-11-20 11:26:00,
2013-11-20 05:36:00,57.6,49.4,30.12,NW,312,0.0,0.0,74,0.00,,FEW100,0.00,VWS V14.01,2013-11-20 11:36:00,
2013-11-20 05:46:00,57.6,49.8,30.12,NW,312,0.0,0.0,75,0.00,,FEW100,0.00,VWS V14.01,2013-11-20 11:46:00,
2013-11-20 05:56:00,57.6,49.8,30.12,NW,312,0.0,0.0,75,0.00,,FEW100,0.00,VWS V14.01,2013-11-20 11:56:00,
2013-11-20 06:06:00,57.6,50.1,30.12,NW,312,0.0,0.0,76,0.00,,OVC016,0.00,VWS V14.01,2013-11-20 12:06:00,
2013-11-20 06:16:00,57.6,50.1,30.12,NW,312,0.0,0.0,76,0.00,,OVC016,0.00,VWS V14.01,2013-11-20 12:16:00,
2013-11-20 06:26:00,57.6,49.8,30.13,NW,312,0.0,0.0,75,0.00,,OVC016,0.00,VWS V14.01,2013-11-20 12:26:00,
2013-11-20 06:36:00,57.6,49.8,30.13,NW,312,0.0,0.0,75,0.00,,OVC016,0.00,VWS V14.01,2013-11-20 12:36:00,
2013-11-20 06:46:00,57.6,49.4,30.13,NW,312,0.0,0.0,74,0.00,,OVC016,0.00,VWS V14.01,2013-11-20 12:46:00,
2013-11-20 06:56:00,57.8,49.9,30.13,NW,312,0.0,0.0,75,0.00,,OVC016,0.00,VWS V14.01,2013-11-20 12:56:00,
2013-11-20 07:06:00,57.8,50.3,30.13,NW,312,0.0,0.0,76,0.00,,OVC016,0.00,VWS V14.01,2013-11-20 13:06:00,
2013-11-20 07:16:00,57.8,50.3,30.13,NW,312,0.0,0.0,76,0.00,,OVC016,0.00,VWS V14.01,2013-11-20 13:16:00,
2013-11-20 07:26:00,58.0,50.8,30.13,NW,312,0.0,0.0,77,0.00,,OVC016,0.00,VWS V14.01,2013-11-20 13:26:00,
2013-11-20 07:36:00,58.0,50.5,30.13,NW,312,0.0,0.0,76,0.00,,OVC016,0.00,VWS V14.01,2013-11-20 13:36:00,
2013-11-20 07:46:00,58.0,50.1,30.13,NW,312,0.0,0.0,75,0.00,,OVC016,0.00,VWS V14.01,2013-11-20 13:46:00,
2013-11-20 07:56:00,58.1,50.6,30.14,NW,312,0.0,0.0,76,0.00,,OVC016,0.00,VWS V14.01,2013-11-20 13:56:00,
2013-11-20 08:06:00,58.1,50.2,30.14,NW,312,0.0,0.0,75,0.00,,OVC016,0.00,VWS V14.01,2013-11-20 14:06:00,
2013-11-20 08:16:00,58.1,50.6,30.14,NW,312,0.0,0.0,76,0.00,,OVC016,0.00,VWS V14.01,2013-11-20 14:16:00,
2013-11-20 08:26:00,58.3,51.1,30.14,NW,312,0.0,0.0,77,0.00,,OVC016,0.00,VWS V14.01,2013-11-20 14:26:00,
2013-11-20 08:36:00,58.4,50.5,30.14,NW,312,0.0,0.0,75,0.00,,OVC016,0.00,VWS V14.01,2013-11-20 14:36:00,
2013-11-20 08:46:00,58.6,51.4,30.14,NW,312,0.0,0.0,77,0.00,,OVC016,0.00,VWS V14.01,2013-11-20 14:46:00,
2013-11-20 08:56:00,58.7,50.8,30.13,NW,312,0.0,0.0,75,0.00,,OVC016,0.00,VWS V14.01,2013-11-20 14:56:00,
2013-11-20 09:06:00,59.0,51.1,30.13,NW,312,0.0,0.0,75,0.00,,OVC016,0.00,VWS V14.01,2013-11-20 15:06:00,
2013-11-20 09:16:00,59.2,50.6,30.13,NW,312,0.0,0.0,73,0.00,,OVC016,0.00,VWS V14.01,2013-11-20 15:16:00,
2013-11-20 09:26:00,59.5,50.8,30.13,NW,312,0.0,0.0,73,0.00,,OVC016,0.00,VWS V14.01,2013-11-20 15:26:00,
2013-11-20 09:36:00,59.6,51.0,30.14,NW,312,0.0,0.0,73,0.00,,OVC016,0.00,VWS V14.01,2013-11-20 15:36:00,
2013-11-20 09:46:00,59.9,51.6,30.14,NW,312,0.0,0.0,74,0.00,,OVC016,0.00,VWS V14.01,2013-11-20 15:46:00,
2013-11-20 09:56:00,60.2,51.9,30.14,NW,312,0.0,0.0,74,0.00,,OVC016,0.00,VWS V14.01,2013-11-20 15:56:00,
2013-11-20 10:06:00,60.5,52.2,30.14,NW,312,0.0,0.0,74,0.00,,OVC016,0.00,VWS V14.01,2013-11-20 16:06:00,
2013-11-20 10:16:00,61.0,52.7,30.14,NW,312,0.0,0.0,74,0.00,,OVC016,0.00,VWS V14.01,2013-11-20 16:16:00,
2013-11-20 10:26:00,61.2,52.5,30.14,NW,312,0.0,0.0,73,0.00,,OVC016,0.00,VWS V14.01,2013-11-20 16:26:00,
2013-11-20 10:36:00,61.2,52.5,30.14,NW,312,0.0,0.0,73,0.00,,OVC016,0.00,VWS V14.01,2013-11-20 16:36:00,
2013-11-20 10:46:00,61.5,53.2,30.14,NW,312,0.0,0.0,74,0.00,,OVC016,0.00,VWS V14.01,2013-11-20 16:46:00,
2013-11-20 10:56:00,61.8,53.4,30.14,NW,312,0.0,0.0,74,0.00,,OVC016,0.00,VWS V14.01,2013-11-20 16:56:00,
2013-11-20 11:06:00,61.8,53.8,30.13,NW,312,0.0,0.0,75,0.00,,OVC016,0.00,VWS V14.01,2013-11-20 17:06:00,
2013-11-20 11:16:00,62.0,54.0,30.13,NW,312,0.0,0.0,75,0.00,,OVC016,0.00,VWS V14.01,2013-11-20 17:16:00,
2013-11-20 11:26:00,62.0,54.7,30.13,NW,312,0.0,0.0,77,0.00,,OVC016,0.00,VWS V14.01,2013-11-20 17:26:00,
2013-11-20 11:36:00,62.4,54.8,30.13,NW,312,0.0,0.0,76,0.00,,OVC016,0.00,VWS V14.01,2013-11-20 17:36:00,
2013-11-20 11:46:00,62.7,54.3,30.13,NW,312,0.0,0.0,74,0.00,,OVC016,0.00,VWS V14.01,2013-11-20 17:46:00,
2013-11-20 11:56:00,63.1,55.1,30.11,NW,312,0.0,0.0,75,0.00,,OVC016,0.00,VWS V14.01,2013-11-20 17:56:00,
2013-11-20 12:06:00,63.4,55.3,30.11,NW,312,0.0,0.0,75,0.00,,OVC018,0.00,VWS V14.01,2013-11-20 18:06:00,
2013-11-20 12:16:00,63.9,55.1,30.11,NW,312,0.0,0.0,73,0.00,,OVC018,0.00,VWS V14.01,2013-11-20 18:16:00,
2013-11-20 12:26:00,64.0,55.2,30.10,NW,312,0.0,0.0,73,0.00,,OVC018,0.00,VWS V14.01,2013-11-20 18:26:00,
2013-11-20 12:36:00,64.5,56.0,30.09,NW,312,0.0,0.0,74,0.00,,OVC018,0.00,VWS V14.01,2013-11-20 18:36:00,
2013-11-20 12:46:00,64.3,56.2,30.09,NW,312,0.0,0.0,75,0.00,,OVC018,0.00,VWS V14.01,2013-11-20 18:46:00,
2013-11-20 12:56:00,64.5,56.0,30.08,NW,312,0.0,0.0,74,0.00,,OVC018,0.00,VWS V14.01,2013-11-20 18:56:00,
2013-11-20 13:06:00,65.0,56.2,30.07,NW,312,0.0,0.0,73,0.00,,OVC018,0.00,VWS V14.01,2013-11-20 19:06:00,
2013-11-20 13:16:00,65.5,57.0,30.07,NW,312,0.0,0.0,74,0.00,,OVC018,0.00,VWS V14.01,2013-11-20 19:16:00,
2013-11-20 13:26:00,65.8,56.5,30.06,NW,312,0.0,0.0,72,0.00,,OVC018,0.00,VWS V14.01,2013-11-20 19:26:00,
2013-11-20 13:36:00,66.4,57.5,30.06,NW,312,0.0,0.0,73,0.00,,OVC018,0.00,VWS V14.01,2013-11-20 19:36:00,
2013-11-20 13:46:00,67.3,58.4,30.06,NW,312,0.0,0.0,73,0.00,,OVC018,0.00,VWS V14.01,2013-11-20 19:46:00,
2013-11-20 13:56:00,67.9,58.2,30.05,NW,313,0.0,0.0,71,0.00,,OVC018,0.00,VWS V14.01,2013-11-20 19:56:00,
2013-11-20 14:06:00,68.4,59.4,30.04,NW,312,0.0,0.0,73,0.00,,OVC018,0.00,VWS V14.01,2013-11-20 20:06:00,
2013-11-20 14:16:00,68.8,59.8,30.04,NW,313,0.0,0.0,73,0.00,,OVC018,0.00,VWS V14.01,2013-11-20 20:16:00,
2013-11-20 14:26:00,68.6,59.2,30.04,NW,321,0.0,0.0,72,0.00,,OVC018,0.00,VWS V14.01,2013-11-20 20:26:00,
2013-11-20 14:36:00,68.4,59.4,30.03,NW,321,0.0,0.0,73,0.00,,OVC018,0.00,VWS V14.01,2013-11-20 20:36:00,
2013-11-20 14:46:00,68.9,59.9,30.03,NW,321,0.0,0.0,73,0.00,,OVC018,0.00,VWS V14.01,2013-11-20 20:46:00,
2013-11-20 14:56:00,69.1,60.1,30.03,NW,321,0.0,0.0,73,0.00,,OVC018,0.00,VWS V14.01,2013-11-20 20:56:00,
2013-11-20 15:06:00,69.4,60.0,30.03,NW,321,0.0,0.0,72,0.00,,OVC018,0.00,VWS V14.01,2013-11-20 21:06:00,
2013-11-20 15:16:00,69.8,60.8,30.03,NW,321,0.0,0.0,73,0.00,,OVC018,0.00,VWS V14.01,2013-11-20 21:16:00,
2013-11-20 15:26:00,69.8,60.8,30.02,NW,321,0.0,0.0,73,0.00,,OVC018,0.00,VWS V14.01,2013-11-20 21:26:00,
2013-11-20 15:36:00,69.9,61.2,30.01,NNW,328,0.0,0.0,74,0.00,,OVC018,0.00,VWS V14.01,2013-11-20 21:36:00,
2013-11-20 15:46:00,70.1,61.4,30.01,NNW,328,0.0,0.0,74,0.00,,OVC018,0.00,VWS V14.01,2013-11-20 21:46:00,
2013-11-20 15:56:00,69.9,61.6,30.02,NNW,328,0.0,0.0,75,0.00,,OVC018,0.00,VWS V14.01,2013-11-20 21:56:00,
2013-11-20 16:06:00,69.4,61.1,30.03,NNW,328,0.0,0.0,75,0.00,,OVC018,0.00,VWS V14.01,2013-11-20 22:06:00,
2013-11-20 16:16:00,69.3,61.4,30.03,NNW,328,0.0,0.0,76,0.00,,OVC018,0.00,VWS V14.01,2013-11-20 22:16:00,
2013-11-20 16:26:00,69.1,61.6,30.03,NNW,328,0.0,0.0,77,0.00,,OVC018,0.00,VWS V14.01,2013-11-20 22:26:00,
2013-11-20 16:36:00,69.1,61.6,30.03,NNW,328,0.0,0.0,77,0.00,,OVC018,0.00,VWS V14.01,2013-11-20 22:36:00,
2013-11-20 16:46:00,68.9,61.8,30.03,NNW,328,0.0,0.0,78,0.00,,OVC018,0.00,VWS V14.01,2013-11-20 22:46:00,
2013-11-20 16:56:00,68.9,61.4,30.03,NNW,328,0.0,0.0,77,0.00,,OVC018,0.00,VWS V14.01,2013-11-20 22:56:00,
2013-11-20 17:06:00,68.8,61.7,30.03,NNW,328,0.0,0.0,78,0.00,,OVC018,0.00,VWS V14.01,2013-11-20 23:06:00,
2013-11-20 17:16:00,68.6,61.5,30.03,NNW,328,0.0,0.0,78,0.00,,OVC018,0.00,VWS V14.01,2013-11-20 23:16:00,
2013-11-20 17:26:00,68.6,61.5,30.04,NNW,328,0.0,0.0,78,0.00,,OVC018,0.00,VWS V14.01,2013-11-20 23:26:00,
2013-11-20 17:36:00,68.4,61.3,30.04,NNW,328,0.0,0.0,78,0.00,,OVC018,0.00,VWS V14.01,2013-11-20 23:36:00,
2013-11-20 17:46:00,68.4,61.3,30.04,NNW,328,0.0,0.0,78,0.00,,OVC018,0.00,VWS V14.01,2013-11-20 23:46:00,
2013-11-20 17:56:00,68.3,61.9,30.05,NNW,328,0.0,0.0,80,0.00,,OVC018,0.00,VWS V14.01,2013-11-20 23:56:00,
2013-11-20 18:06:00,68.1,62.8,30.05,NNW,328,0.0,0.0,83,0.00,,OVC021,0.00,VWS V14.01,2013-11-21 00:06:00,
2013-11-20 18:16:00,67.4,62.7,30.05,NNW,328,0.0,0.0,85,0.00,,OVC021,0.00,VWS V14.01,2013-11-21 00:16:00,
2013-11-20 18:26:00,66.9,62.6,30.06,NNW,328,0.0,0.0,86,0.00,,OVC021,0.00,VWS V14.01,2013-11-21 00:26:00,
2013-11-20 18:36:00,66.4,62.7,30.06,NNW,328,0.0,0.0,88,0.00,,OVC021,0.00,VWS V14.01,2013-11-21 00:36:00,
2013-11-20 18:46:00,66.0,62.7,30.06,NNW,328,0.0,0.0,89,0.00,,OVC021,0.00,VWS V14.01,2013-11-21 00:46:00,
2013-11-20 18:56:00,65.8,62.8,30.06,NNW,328,0.0,0.0,90,0.01,,OVC021,0.01,VWS V14.01,2013-11-21 00:56:00,
2013-11-20 19:06:00,65.6,62.9,30.06,NNW,328,0.0,0.0,91,0.01,,OVC021,0.01,VWS V14.01,2013-11-21 01:06:00,
2013-11-20 19:16:00,65.5,62.8,30.06,NNW,328,0.0,0.0,91,0.01,,OVC021,0.01,VWS V14.01,2013-11-21 01:16:00,
2013-11-20 19:26:00,65.3,62.9,30.07,NNW,328,0.0,0.0,92,0.01,,OVC021,0.01,VWS V14.01,2013-11-21 01:26:00,
2013-11-20 19:36:00,65.2,62.8,30.07,NNW,328,0.0,0.0,92,0.01,,OVC021,0.01,VWS V14.01,2013-11-21 01:36:00,
2013-11-20 19:46:00,65.0,62.9,30.07,NNW,328,0.0,0.0,93,0.02,,OVC021,0.02,VWS V14.01,2013-11-21 01:46:00,
2013-11-20 19:56:00,65.0,63.2,30.07,NNW,328,0.0,0.0,94,0.02,,OVC021,0.02,VWS V14.01,2013-11-21 01:56:00,
2013-11-20 20:06:00,64.8,63.0,30.08,NNW,328,0.0,0.0,94,0.01,,OVC021,0.02,VWS V14.01,2013-11-21 02:06:00,
2013-11-20 20:16:00,64.8,63.3,30.08,NNW,328,0.0,0.0,95,0.01,,OVC021,0.02,VWS V14.01,2013-11-21 02:16:00,
2013-11-20 20:26:00,64.8,63.3,30.07,NNW,328,0.0,0.0,95,0.01,,OVC021,0.02,VWS V14.01,2013-11-21 02:26:00,
2013-11-20 20:36:00,64.8,63.6,30.07,NNW,328,0.0,0.0,96,0.01,,OVC021,0.02,VWS V14.01,2013-11-21 02:36:00,
2013-11-20 20:46:00,64.8,63.6,30.07,NNW,328,0.0,0.0,96,0.01,,OVC021,0.02,VWS V14.01,2013-11-21 02:46:00,
2013-11-20 20:56:00,64.8,63.6,30.07,NNW,328,0.0,0.0,96,0.00,,OVC021,0.02,VWS V14.01,2013-11-21 02:56:00,
2013-11-20 21:06:00,65.0,63.8,30.07,NNW,328,0.0,0.0,96,0.00,,OVC021,0.02,VWS V14.01,2013-11-21 03:06:00,
2013-11-20 21:16:00,65.0,63.8,30.07,NNW,328,0.0,0.0,96,0.00,,OVC021,0.02,VWS V14.01,2013-11-21 03:16:00,
2013-11-20 21:26:00,65.2,64.3,30.06,NNW,328,0.0,0.0,97,0.00,,OVC021,0.02,VWS V14.01,2013-11-21 03:26:00,
2013-11-20 21:36:00,65.2,64.3,30.06,NNW,332,0.0,0.0,97,0.00,,OVC021,0.02,VWS V14.01,2013-11-21 03:36:00,
2013-11-20 21:46:00,65.2,64.3,30.06,NNW,332,0.0,0.0,97,0.00,,OVC021,0.02,VWS V14.01,2013-11-21 03:46:00,
2013-11-20 21:56:00,65.2,64.3,30.07,NNW,332,0.0,0.0,97,0.00,,OVC021,0.02,VWS V14.01,2013-11-21 03:56:00,
2013-11-20 22:06:00,65.3,64.4,30.07,NNW,332,0.0,0.0,97,0.00,,OVC021,0.02,VWS V14.01,2013-11-21 04:06:00,
2013-11-20 22:16:00,65.3,64.4,30.07,NNW,332,0.0,0.0,97,0.00,,OVC021,0.02,VWS V14.01,2013-11-21 04:16:00,
2013-11-20 22:26:00,65.3,64.4,30.07,NNW,332,0.0,0.0,97,0.00,,OVC021,0.02,VWS V14.01,2013-11-21 04:26:00,
2013-11-20 22:36:00,65.5,64.9,30.07,NNW,332,0.0,0.0,98,0.00,,OVC021,0.02,VWS V14.01,2013-11-21 04:36:00,
2013-11-20 22:46:00,65.5,64.9,30.07,NNW,332,0.0,0.0,98,0.00,,OVC021,0.02,VWS V14.01,2013-11-21 04:46:00,
2013-11-20 22:56:00,65.5,64.9,30.06,NNW,332,0.0,0.0,98,0.00,,OVC021,0.02,VWS V14.01,2013-11-21 04:56:00,
2013-11-20 23:06:00,65.5,64.9,30.06,NNW,332,0.0,0.0,98,0.00,,OVC021,0.02,VWS V14.01,2013-11-21 05:06:00,
2013-11-20 23:16:00,65.6,65.0,30.06,NNW,332,0.0,0.0,98,0.00,,OVC021,0.02,VWS V14.01,2013-11-21 05:16:00,
2013-11-20 23:26:00,65.6,65.0,30.07,NNW,332,0.0,0.0,98,0.00,,OVC021,0.02,VWS V14.01,2013-11-21 05:26:00,
2013-11-20 23:36:00,65.6,65.0,30.07,NNW,332,0.0,0.0,98,0.00,,OVC021,0.02,VWS V14.01,2013-11-21 05:36:00,
2013-11-20 23:46:00,65.8,65.2,30.07,NNW,332,0.0,0.0,98,0.00,,OVC021,0.02,VWS V14.01,2013-11-21 05:46:00,
2013-11-20 23:56:00,65.8,65.2,30.07,NNW,332,0.0,0.0,98,0.00,,OVC021,0.02,VWS V14.01,2013-11-21 05:56:00,